QPF
0.00 0.00 0.00 0.00 0.00 0.00 0.00 0.00 0.00 0.00 0.00 0.00 0.00 0.00 0.00 0.00 0.00 0.00 0.00 0.00 0.00 0.00 0.00 0.00 0.00 0.00 0.00 0.00 0.00 0.00 0.00 0.00 0.00 0.00 0.00 0.00 0.00 0.00 0.00 0.00 0.00 0.00
0.00 0.00 0.00 0.00 0.00 0.00 0.00 0.00 0.00 0.00 0.00 0.00 0.00 0.00 0.00 0.00 0.00 0.00 0.00 0.00 0.00 0.00 0.00 0.00 0.00 0.00 0.00 0.00 0.00 0.00 0.00 0.00 0.00 0.00 0.00 0.00 0.00 0.00 0.00 0.00 0.00 0.00
0.01 0.01 0.01 0.00 0.00 0.00 0.00 0.00 0.00 0.00 0.00 0.00 0.00 0.00 0.00 0.00 0.00 0.00 0.00 0.00 0.00 0.00 0.00 0.00 0.00 0.00 0.00 0.00 0.00 0.00 0.00 0.00 0.00 0.00 0.00 0.00 0.00 0.00 0.00 0.00 0.00 0.00
0.02 0.01 0.00 0.01 0.02 0.00 0.00 0.00 0.00 0.00 0.00 0.00 0.00 0.00 0.00 0.00 0.00 0.00 0.00 0.00 0.00 0.00 0.00 0.00 0.00 0.00 0.00 0.00 0.00 0.00 0.00 0.00 0.00 0.00 0.00 0.00 0.00 0.00 0.00 0.00 0.00 0.00
0.02 0.00 0.00 0.01 0.01 0.00 0.00 0.00 0.00 0.00 0.00 0.00 0.00 0.00 0.00 0.00 0.00 0.00 0.00 0.00 0.00 0.00 0.00 0.00 0.00 0.00 0.00 0.00 0.00 0.00 0.00 0.00 0.00 0.00 0.00 0.00 0.00 0.00 0.00 0.00 0.00 0.00
0.00 0.00 0.00 0.01 0.02 0.01 0.00 0.00 0.01 0.00 0.00 0.00 0.00 0.00 0.00 0.00 0.00 0.00 0.00 0.00 0.00 0.00 0.00 0.00 0.00 0.00 0.00 0.00 0.00 0.00 0.00 0.00 0.00 0.00 0.00 0.00 0.00 0.00 0.00 0.00 0.00 0.00
0.00 0.00 0.00 0.00 0.00 0.05 0.02 0.00 0.00 0.00 0.00 0.00 0.00 0.00 0.00 0.00 0.00 0.00 0.00 0.00 0.00 0.00 0.00 0.00 0.00 0.00 0.00 0.00 0.00 0.00 0.00 0.00 0.00 0.00 0.00 0.00 0.00 0.00 0.00 0.00 0.00 0.00
0.00 0.00 0.00 0.00 0.02 0.03 0.06 0.00 0.00 0.00 0.00 0.00 0.00 0.00 0.00 0.00 0.00 0.00 0.00 0.00 0.00 0.00 0.00 0.00 0.00 0.00 0.00 0.00 0.00 0.00 0.00 0.00 0.00 0.00 0.00 0.00 0.00 0.00 0.00 0.00 0.00 0.00
0.00 0.00 0.00 0.00 0.03 0.03 0.02 0.00 0.00 0.00 0.00 0.00 0.00 0.00 0.00 0.00 0.00 0.00 0.00 0.00 0.00 0.00 0.00 0.00 0.00 0.00 0.00 0.00 0.00 0.00 0.00 0.00 0.00 0.00 0.00 0.00 0.00 0.00 0.00 0.00 0.00 0.00
0.00 0.00 0.00 0.00 0.00 0.01 0.00 0.00 0.03 0.03 0.03 0.00 0.00 0.00 0.00 0.00 0.00 0.00 0.01 0.01 0.00 0.00 0.00 0.00 0.00 0.00 0.00 0.00 0.00 0.00 0.00 0.00 0.00 0.00 0.00 0.00 0.00 0.00 0.00 0.00 0.00 0.00
0.01 0.00 0.01 0.02 0.05 0.09 0.14 0.12 0.10 0.07 0.12 0.04 0.05 0.03 0.01 0.02 0.09 0.04 0.01 0.01 0.00 0.00 0.00 0.00 0.00 0.00 0.00 0.00 0.00 0.00 0.00 0.00 0.00 0.00 0.00 0.00 0.00 0.00 0.00 0.00 0.00 0.00
0.03 0.00 0.00 0.01 0.02 0.05 0.07 0.10 0.12 0.19 0.25 0.18 0.14 0.07 0.14 0.15 0.18 0.18 0.09 0.04 0.00 0.00 0.00 0.00 0.01 0.01 0.01 0.00 0.00 0.00 0.00 0.00 0.00 0.00 0.00 0.00 0.00 0.00 0.00 0.00 0.00 0.00
0.05 0.00 0.00 0.01 0.04 0.11 0.01 0.04 0.07 0.18 0.33 0.27 0.19 0.19 0.30 0.32 0.29 0.08 0.02 0.00 0.03 0.00 0.00 0.00 0.00 0.01 0.00 0.00 0.00 0.00 0.00 0.00 0.00 0.00 0.00 0.00 0.00 0.00 0.00 0.00 0.00 0.00
0.09 0.06 0.01 0.06 0.15 0.01 0.01 0.04 0.02 0.03 0.06 0.23 0.31 0.17 0.39 0.22 0.05 0.08 0.03 0.10 0.04 0.01 0.00 0.00 0.00 0.00 0.03 0.00 0.00 0.00 0.00 0.00 0.00 0.00 0.00 0.00 0.00 0.00 0.00 0.00 0.00 0.00
0.07 0.11 0.12 0.29 0.08 0.02 0.08 0.05 0.02 0.00 0.10 0.28 0.15 0.20 0.43 0.45 0.03 0.00 0.00 0.00 0.00 0.00 0.00 0.00 0.00 0.00 0.00 0.00 0.01 0.00 0.00 0.00 0.00 0.00 0.00 0.00 0.00 0.00 0.00 0.00 0.00 0.00
0.06 0.03 0.01 0.00 0.04 0.01 0.06 0.09 0.08 0.07 0.08 0.08 0.07 0.19 0.22 0.30 0.12 0.03 0.00 0.00 0.00 0.00 0.00 0.00 0.00 0.00 0.00 0.00 0.00 0.00 0.00 0.00 0.00 0.00 0.00 0.00 0.00 0.00 0.00 0.00 0.00 0.00
0.05 0.05 0.05 0.01 0.00 0.00 0.00 0.01 0.00 0.03 0.00 0.00 0.00 0.00 0.01 0.12 0.13 0.00 0.00 0.00 0.00 0.00 0.00 0.00 0.00 0.00 0.00 0.00 0.00 0.00 0.00 0.00 0.00 0.00 0.00 0.00 0.00 0.01 0.00 0.01 0.00 0.00
0.00 0.00 0.00 0.00 0.00 0.00 0.00 0.00 0.00 0.00 0.00 0.00 0.00 0.00 0.00 0.00 0.00 0.00 0.00 0.00 0.00 0.00 0.00 0.00 0.00 0.00 0.00 0.00 0.00 0.00 0.00 0.00 0.00 0.00 0.00 0.01 0.01 0.01 0.00 0.00 0.00 0.00
0.00 0.00 0.00 0.00 0.00 0.00 0.00 0.00 0.00 0.00 0.00 0.00 0.00 0.00 0.00 0.00 0.00 0.00 0.00 0.00 0.00 0.00 0.00 0.00 0.00 0.00 0.00 0.00 0.00 0.00 0.00 0.00 0.00 0.00 0.00 0.00 0.00 0.00 0.00 0.00 0.00 0.00
0.00 0.00 0.00 0.00 0.00 0.00 0.00 0.00 0.00 0.00 0.00 0.00 0.00 0.00 0.00 0.00 0.00 0.00 0.00 0.00 0.00 0.00 0.00 0.00 0.00 0.00 0.00 0.00 0.00 0.00 0.00 0.00 0.00 0.00 0.00 0.00 0.00 0.00 0.00 0.00 0.00 0.00
0.00 0.00 0.00 0.00 0.00 0.00 0.00 0.00 0.00 0.00 0.00 0.00 0.00 0.00 0.00 0.00 0.00 0.00 0.00 0.00 0.00 0.00 0.00 0.00 0.00 0.00 0.00 0.00 0.00 0.00 0.00 0.00 0.00 0.00 0.00 0.00 0.00 0.00 0.00 0.02 0.00 0.00
0.00 0.00 0.00 0.00 0.00 0.00 0.00 0.00 0.00 0.00 0.00 0.00 0.00 0.00 0.00 0.00 0.00 0.00 0.00 0.00 0.00 0.00 0.00 0.00 0.00 0.00 0.00 0.00 0.00 0.00 0.00 0.00 0.00 0.00 0.00 0.00 0.00 0.00 0.00 0.00 0.00 0.00
0.00 0.00 0.00 0.00 0.00 0.00 0.00 0.00 0.00 0.00 0.00 0.00 0.00 0.00 0.00 0.00 0.00 0.00 0.00 0.00 0.00 0.00 0.00 0.00 0.00 0.00 0.00 0.00 0.00 0.00 0.00 0.00 0.00 0.00 0.00 0.00 0.00 0.00 0.00 0.00 0.00 0.00
0.00 0.00 0.00 0.00 0.00 0.00 0.00 0.00 0.00 0.00 0.00 0.00 0.00 0.00 0.00 0.00 0.00 0.00 0.00 0.00 0.00 0.00 0.00 0.00 0.00 0.00 0.00 0.00 0.00 0.00 0.00 0.00 0.00 0.00 0.00 0.00 0.00 0.00 0.00 0.00 0.00 0.01
0.00 0.00 0.00 0.00 0.00 0.00 0.00 0.00 0.00 0.00 0.00 0.00 0.00 0.00 0.00 0.00 0.00 0.00 0.00 0.00 0.00 0.00 0.00 0.00 0.00 0.00 0.00 0.00 0.00 0.00 0.00 0.00 0.00 0.00 0.00 0.00 0.00 0.00 0.00 0.00 0.00 0.00
0.01 0.00 0.00 0.00 0.00 0.00 0.00 0.00 0.00 0.00 0.00 0.00 0.00 0.00 0.00 0.00 0.00 0.00 0.00 0.00 0.00 0.00 0.00 0.00 0.00 0.00 0.00 0.00 0.00 0.00 0.00 0.00 0.00 0.00 0.00 0.00 0.00 0.00 0.00 0.00 0.00 0.00
MSLP
1017.07 1017.19 1017.23 1017.31 1017.51 1017.83 1018.23 1018.47 1018.67 1018.71 1018.75 1018.79 1018.71 1018.67 1018.59 1018.47 1018.55 1018.43 1018.43 1018.43 1018.47 1018.51 1018.59 1018.63 1018.67 1018.79 1018.95 1019.11 1019.23 1019.35 1019.55 1019.71 1019.87 1019.99 1019.95 1020.03 1020.15 1020.11 1020.19 1020.27 1020.35 1020.39
1017.23 1017.27 1017.27 1017.27 1017.51 1017.83 1018.19 1018.43 1018.55 1018.63 1018.75 1018.83 1018.87 1018.87 1018.83 1018.75 1018.71 1018.67 1018.55 1018.55 1018.55 1018.59 1018.59 1018.63 1018.71 1018.83 1019.03 1019.19 1019.35 1019.47 1019.67 1019.75 1019.91 1020.07 1019.99 1020.11 1020.31 1020.31 1020.39 1020.47 1020.51 1020.63
1017.19 1017.55 1017.47 1017.19 1017.39 1017.71 1018.03 1018.31 1018.55 1018.67 1018.71 1018.83 1018.95 1018.99 1018.95 1018.99 1018.91 1018.87 1018.75 1018.63 1018.63 1018.67 1018.67 1018.67 1018.79 1018.95 1019.11 1019.27 1019.39 1019.51 1019.63 1019.75 1019.87 1020.03 1020.07 1020.23 1020.35 1020.39 1020.59 1020.59 1020.59 1020.59
1016.99 1017.35 1017.43 1017.27 1017.67 1017.83 1018.07 1018.27 1018.47 1018.71 1018.87 1018.91 1018.83 1018.87 1018.99 1018.99 1019.07 1019.03 1018.99 1018.87 1018.79 1018.79 1018.79 1018.79 1018.83 1019.03 1019.15 1019.31 1019.47 1019.59 1019.71 1019.79 1019.91 1019.99 1020.07 1020.27 1020.35 1020.43 1020.55 1020.59 1020.67 1020.71
1016.95 1017.19 1017.23 1016.91 1017.27 1017.87 1017.95 1018.15 1018.27 1018.55 1018.71 1018.71 1018.83 1018.91 1018.95 1018.99 1019.11 1019.11 1019.15 1019.07 1018.99 1018.91 1018.91 1018.91 1018.99 1019.03 1019.15 1019.23 1019.31 1019.47 1019.67 1019.83 1019.99 1019.95 1020.03 1020.15 1020.27 1020.27 1020.43 1020.43 1020.55 1020.67
1016.95 1017.11 1017.07 1016.91 1017.07 1017.55 1017.79 1017.91 1018.11 1018.27 1018.51 1018.79 1018.79 1018.91 1018.91 1018.99 1019.11 1019.15 1019.23 1019.19 1019.19 1019.11 1019.07 1019.03 1019.07 1019.19 1019.35 1019.39 1019.51 1019.51 1019.63 1019.71 1019.91 1019.91 1019.99 1020.11 1020.27 1020.31 1020.35 1020.39 1020.43 1020.51
1017.07 1017.31 1017.35 1017.03 1017.07 1017.27 1017.55 1017.71 1017.95 1018.15 1018.39 1018.51 1018.79 1018.91 1018.99 1019.07 1019.11 1019.23 1019.27 1019.31 1019.27 1019.23 1019.19 1019.19 1019.23 1019.27 1019.43 1019.51 1019.63 1019.75 1019.91 1019.95 1020.11 1020.11 1020.07 1020.27 1020.39 1020.47 1020.55 1020.51 1020.55 1020.59
1017.15 1017.43 1017.63 1017.35 1017.27 1017.35 1017.51 1017.59 1017.95 1018.27 1018.31 1018.63 1018.79 1018.75 1018.99 1019.07 1019.19 1019.27 1019.31 1019.35 1019.31 1019.31 1019.35 1019.35 1019.35 1019.35 1019.47 1019.55 1019.59 1019.79 1019.99 1020.19 1020.15 1020.23 1020.27 1020.39 1020.55 1020.55 1020.71 1020.71 1020.75 1020.71
1017.11 1017.43 1017.51 1017.51 1017.35 1017.23 1017.35 1017.75 1018.11 1018.51 1018.79 1018.75 1018.71 1018.79 1018.95 1019.15 1019.27 1019.31 1019.31 1019.27 1019.15 1019.07 1019.11 1019.27 1019.43 1019.63 1019.79 1019.75 1019.71 1019.71 1019.83 1020.07 1020.23 1020.27 1020.35 1020.43 1020.47 1020.51 1020.59 1020.67 1020.71 1020.75
1017.43 1017.43 1017.39 1017.51 1017.51 1017.43 1017.55 1017.71 1017.99 1018.47 1018.79 1019.19 1019.47 1019.51 1019.47 1019.39 1019.51 1019.51 1019.51 1019.47 1019.23 1018.99 1018.95 1019.07 1019.35 1019.55 1019.71 1019.83 1019.75 1019.71 1019.75 1019.83 1020.03 1020.19 1020.31 1020.43 1020.47 1020.55 1020.59 1020.59 1020.55 1020.67
1017.03 1016.91 1016.99 1017.31 1017.55 1017.79 1018.07 1018.23 1018.27 1018.51 1018.63 1018.67 1018.87 1019.07 1019.51 1020.07 1020.47 1020.63 1020.43 1019.91 1019.55 1019.31 1019.15 1019.11 1019.19 1019.51 1019.71 1019.83 1019.91 1019.95 1019.87 1019.87 1019.95 1020.07 1020.19 1020.31 1020.47 1020.59 1020.71 1020.71 1020.67 1020.55
1016.67 1016.91 1017.07 1017.43 1017.71 1017.91 1017.99 1018.07 1018.19 1018.51 1018.83 1019.11 1019.23 1019.35 1019.43 1019.43 1019.91 1020.67 1021.15 1020.67 1019.91 1019.39 1019.23 1019.27 1019.31 1019.51 1019.95 1020.03 1019.99 1020.03 1020.07 1020.07 1020.03 1020.03 1020.07 1020.19 1020.35 1020.55 1020.63 1020.75 1020.71 1020.75
1016.71 1017.07 1017.51 1017.43 1017.39 1017.43 1017.55 1017.75 1017.91 1018.27 1018.63 1018.79 1018.91 1019.19 1019.23 1019.19 1019.19 1019.59 1019.95 1020.19 1019.95 1019.43 1019.27 1019.31 1019.39 1019.59 1019.83 1019.95 1019.95 1019.95 1019.99 1020.07 1020.15 1020.15 1020.15 1020.19 1020.23 1020.35 1020.55 1020.67 1020.67 1020.71
1016.79 1017.07 1017.47 1017.67 1017.43 1017.43 1017.59 1017.75 1017.99 1018.23 1018.39 1018.51 1018.67 1019.07 1019.23 1019.31 1019.47 1019.71 1019.87 1020.15 1019.95 1019.59 1019.27 1019.23 1019.31 1019.51 1019.71 1019.67 1019.59 1019.59 1019.67 1019.79 1019.95 1020.03 1020.07 1020.15 1020.19 1020.35 1020.47 1020.51 1020.51 1020.55
1016.99 1017.11 1017.27 1017.19 1017.23 1017.59 1017.75 1017.99 1018.27 1018.39 1018.43 1018.67 1018.87 1019.07 1019.19 1019.07 1019.27 1019.51 1019.71 1019.95 1019.59 1019.31 1019.23 1019.23 1019.19 1019.15 1019.19 1019.23 1019.23 1019.27 1019.35 1019.47 1019.63 1019.79 1019.91 1019.99 1020.11 1020.23 1020.39 1020.47 1020.55 1020.51
1017.15 1017.23 1017.47 1017.27 1017.19 1017.39 1017.63 1017.79 1018.11 1018.39 1018.55 1018.59 1018.67 1018.79 1019.07 1019.39 1019.71 1019.71 1019.87 1019.55 1019.27 1019.19 1019.15 1019.11 1019.11 1019.11 1019.07 1019.07 1019.11 1019.11 1019.27 1019.35 1019.51 1019.63 1019.75 1019.83 1019.95 1020.11 1020.31 1020.47 1020.47 1020.47
1017.03 1017.15 1017.35 1017.47 1017.43 1017.51 1017.75 1018.11 1018.35 1018.59 1018.75 1018.71 1018.67 1018.75 1019.11 1019.67 1020.15 1020.15 1019.79 1019.51 1019.31 1019.19 1019.11 1019.11 1019.11 1019.07 1018.99 1019.07 1019.11 1019.15 1019.19 1019.31 1019.39 1019.43 1019.51 1019.63 1019.75 1019.87 1020.07 1020.35 1020.35 1020.43
1017.43 1017.43 1017.59 1017.75 1017.95 1017.95 1017.91 1017.99 1018.11 1018.23 1018.31 1018.47 1018.71 1018.91 1019.11 1019.51 1019.71 1019.59 1019.43 1019.31 1019.23 1019.19 1019.15 1019.03 1018.99 1018.87 1018.95 1019.07 1019.23 1019.31 1019.39 1019.35 1019.39 1019.39 1019.47 1019.55 1019.59 1019.63 1019.75 1019.99 1020.11 1020.31
1017.55 1017.63 1017.67 1017.79 1017.91 1017.87 1017.87 1017.91 1017.99 1018.07 1018.19 1018.39 1018.47 1018.63 1018.91 1018.99 1018.95 1019.11 1019.15 1019.19 1019.11 1019.07 1018.95 1018.87 1018.79 1018.91 1019.03 1019.03 1019.11 1019.19 1019.23 1019.31 1019.27 1019.27 1019.31 1019.35 1019.47 1019.55 1019.67 1019.79 1019.99 1020.31
1016.99 1017.03 1017.07 1017.27 1017.35 1017.51 1017.59 1017.67 1017.79 1017.83 1017.99 1018.15 1018.23 1018.27 1018.19 1018.19 1018.27 1018.23 1018.35 1018.51 1018.59 1018.51 1018.47 1018.51 1018.59 1018.79 1018.83 1018.83 1018.87 1018.95 1019.07 1019.19 1019.15 1019.23 1019.23 1019.23 1019.27 1019.35 1019.51 1019.71 1019.91 1020.11
1016.55 1016.59 1016.75 1016.99 1017.19 1017.27 1017.35 1017.39 1017.47 1017.59 1017.67 1017.83 1017.91 1017.95 1017.95 1017.99 1018.03 1018.03 1018.07 1018.07 1018.19 1018.39 1018.39 1018.39 1018.51 1018.67 1018.59 1018.55 1018.55 1018.75 1018.99 1019.15 1019.23 1019.31 1019.35 1019.31 1019.31 1019.35 1019.43 1019.59 1019.83 1020.07
1016.39 1016.51 1016.63 1016.79 1016.95 1017.07 1017.15 1017.31 1017.47 1017.51 1017.55 1017.83 1017.91 1018.07 1018.27 1018.23 1018.23 1018.27 1018.11 1018.07 1018.15 1018.27 1018.27 1018.11 1018.51 1018.59 1018.43 1018.35 1018.51 1018.71 1018.87 1019.07 1019.23 1019.27 1019.31 1019.39 1019.47 1019.55 1019.55 1019.63 1019.71 1019.83
1016.83 1016.55 1016.67 1016.83 1016.99 1017.03 1017.07 1017.15 1017.31 1017.47 1017.67 1017.99 1017.91 1018.07 1018.03 1018.07 1018.15 1018.27 1018.51 1018.31 1018.11 1018.31 1018.47 1018.35 1018.47 1018.67 1018.47 1018.35 1018.59 1018.75 1018.79 1018.95 1019.15 1019.31 1019.47 1019.63 1019.83 1019.95 1019.95 1019.95 1019.91 1019.95
1016.71 1016.79 1016.71 1016.75 1016.99 1016.87 1016.87 1016.99 1017.15 1017.31 1017.31 1017.59 1017.35 1017.51 1017.71 1017.99 1018.19 1018.23 1018.63 1018.83 1018.63 1018.47 1018.83 1018.51 1018.67 1019.03 1019.11 1018.95 1018.67 1018.63 1018.55 1018.79 1019.07 1019.27 1019.63 1019.79 1020.11 1020.35 1020.39 1020.31 1020.23 1020.11
1016.71 1016.87 1016.95 1016.87 1016.87 1016.83 1016.83 1016.87 1016.99 1017.15 1017.39 1017.55 1017.59 1017.71 1017.91 1018.07 1018.15 1018.03 1018.39 1018.91 1019.31 1019.23 1019.15 1019.03 1019.03 1019.19 1019.27 1019.35 1019.27 1018.67 1018.63 1018.83 1019.07 1019.39 1019.71 1020.15 1020.23 1020.51 1020.87 1020.91 1020.95 1020.91
1017.15 1016.99 1016.91 1016.87 1016.79 1016.83 1016.99 1016.99 1017.23 1017.27 1017.35 1017.51 1017.79 1017.91 1017.99 1018.15 1018.23 1018.31 1018.27 1018.91 1019.51 1019.43 1019.43 1019.47 1019.23 1019.23 1019.35 1019.35 1019.39 1019.19 1018.95 1019.03 1019.19 1019.27 1019.83 1020.35 1020.59 1020.55 1020.67 1021.31 1021.47 1021.55
Thickness
5599 5599 5598 5598 5596 5593 5590 5589 5588 5587 5587 5587 5587 5587 5588 5589 5589 5590 5590 5590 5590 5590 5590 5590 5589 5588 5587 5586 5585 5584 5582 5581 5580 5580 5580 5579 5578 5578 5577 5576 5576 5575
5595 5594 5595 5596 5595 5592 5589 5587 5585 5585 5584 5583 5583 5583 5584 5585 5586 5586 5587 5587 5587 5587 5588 5588 5587 5586 5584 5583 5582 5580 5579 5578 5578 5577 5577 5576 5575 5575 5574 5573 5573 5572
5592 5590 5591 5593 5592 5590 5588 5585 5583 5582 5581 5581 5581 5580 5580 5581 5582 5582 5584 5584 5585 5584 5585 5585 5585 5584 5582 5580 5579 5578 5577 5576 5575 5575 5574 5573 5572 5572 5571 5570 5570 5570
5591 5588 5589 5591 5589 5587 5586 5584 5581 5580 5579 5578 5579 5578 5578 5579 5578 5579 5579 5580 5582 5582 5582 5582 5582 5581 5579 5578 5577 5575 5574 5574 5573 5572 5572 5571 5570 5570 5569 5568 5568 5568
5589 5587 5588 5590 5588 5585 5584 5583 5581 5579 5577 5575 5576 5576 5576 5576 5576 5576 5576 5576 5577 5578 5579 5579 5579 5578 5578 5576 5575 5574 5573 5572 5570 5571 5570 5569 5568 5568 5568 5567 5567 5566
5588 5586 5587 5589 5588 5585 5583 5583 5581 5578 5576 5574 5574 5574 5573 5574 5573 5573 5573 5573 5574 5575 5575 5576 5576 5575 5575 5574 5573 5572 5571 5570 5569 5568 5569 5567 5566 5566 5566 5566 5566 5565
5586 5583 5583 5586 5585 5584 5583 5583 5580 5578 5575 5573 5571 5571 5571 5571 5570 5570 5570 5570 5572 5572 5573 5573 5572 5572 5572 5571 5570 5569 5568 5567 5566 5566 5566 5564 5563 5563 5562 5563 5563 5563
5583 5580 5578 5580 5582 5581 5581 5580 5577 5574 5573 5571 5569 5569 5568 5568 5567 5567 5568 5568 5570 5570 5570 5570 5569 5569 5568 5568 5568 5567 5565 5564 5563 5563 5563 5561 5561 5561 5560 5560 5559 5560
5579 5576 5575 5576 5578 5579 5578 5576 5573 5569 5568 5566 5565 5565 5564 5564 5564 5564 5565 5566 5568 5569 5569 5568 5567 5566 5565 5565 5565 5565 5564 5563 5561 5560 5560 5559 5559 5559 5558 5558 5558 5558
5575 5574 5574 5574 5574 5575 5574 5572 5570 5567 5566 5564 5561 5560 5559 5558 5558 5558 5559 5561 5564 5566 5567 5566 5565 5564 5563 5562 5562 5562 5562 5561 5560 5559 5558 5557 5557 5557 5556 5557 5557 5557
5575 5575 5574 5572 5569 5569 5568 5567 5566 5565 5564 5562 5560 5559 5557 5555 5552 5548 5548 5553 5558 5561 5563 5563 5563 5560 5559 5559 5558 5558 5559 5559 5558 5557 5556 5555 5554 5554 5554 5553 5554 5554
5574 5572 5570 5568 5567 5567 5566 5565 5565 5562 5561 5559 5558 5557 5556 5555 5553 5548 5544 5547 5553 5557 5558 5558 5559 5557 5555 5554 5554 5555 5555 5555 5555 5555 5555 5554 5553 5552 5551 5551 5551 5551
5570 5568 5565 5565 5565 5566 5565 5565 5564 5562 5560 5559 5557 5555 5554 5555 5554 5551 5548 5548 5549 5553 5555 5555 5555 5554 5551 5550 5551 5552 5551 5552 5552 5552 5552 5552 5551 5550 5549 5548 5548 5548
5566 5564 5561 5561 5562 5562 5561 5560 5559 5558 5558 5557 5555 5553 5552 5551 5551 5549 5547 5546 5547 5550 5551 5552 5552 5551 5550 5549 5550 5550 5550 5550 5549 5550 5549 5549 5548 5547 5546 5545 5545 5545
5560 5559 5558 5557 5559 5558 5556 5555 5554 5553 5555 5554 5552 5550 5549 5548 5547 5545 5543 5543 5545 5548 5549 5550 5549 5549 5549 5549 5549 5549 5548 5548 5548 5547 5547 5546 5545 5544 5542 5542 5542 5542
5555 5554 5553 5553 5554 5553 5552 5551 5549 5548 5548 5548 5548 5548 5545 5543 5540 5537 5538 5540 5543 5544 5546 5546 5546 5545 5546 5546 5546 5547 5546 5545 5545 5544 5543 5543 5541 5540 5539 5538 5537 5537
5549 5548 5547 5547 5548 5547 5546 5545 5543 5542 5542 5541 5542 5542 5539 5535 5531 5530 5532 5535 5537 5539 5540 5540 5540 5541 5541 5542 5542 5542 5541 5542 5541 5541 5540 5539 5538 5538 5536 5535 5534 5533
5540 5540 5539 5539 5539 5539 5539 5539 5539 5539 5538 5537 5536 5535 5532 5529 5527 5526 5528 5530 5532 5533 5534 5534 5536 5537 5537 5536 5536 5536 5536 5536 5537 5537 5536 5535 5535 5534 5534 5532 5531 5529
5533 5533 5533 5532 5532 5533 5533 5533 5534 5534 5533 5533 5532 5530 5529 5528 5527 5527 5528 5528 5529 5530 5531 5532 5532 5531 5531 5531 5531 5531 5531 5532 5532 5532 5532 5532 5531 5531 5529 5528 5527 5525
5531 5530 5530 5529 5529 5529 5529 5529 5530 5529 5529 5528 5528 5528 5528 5528 5528 5529 5528 5528 5528 5529 5529 5529 5528 5527 5527 5527 5527 5527 5527 5527 5528 5528 5527 5527 5527 5526 5525 5523 5521 5519
5529 5528 5527 5526 5526 5526 5526 5526 5526 5526 5525 5524 5524 5525 5525 5526 5525 5526 5527 5526 5526 5525 5525 5524 5523 5523 5523 5524 5523 5523 5522 5521 5521 5521 5521 5521 5521 5520 5520 5518 5517 5514
5523 5523 5524 5522 5522 5522 5522 5521 5521 5521 5520 5519 5519 5519 5519 5520 5520 5520 5520 5521 5520 5519 5519 5519 5518 5517 5518 5518 5517 5516 5516 5515 5515 5514 5514 5513 5513 5513 5513 5512 5511 5510
5516 5517 5518 5517 5517 5517 5517 5517 5516 5515 5515 5514 5514 5515 5514 5514 5514 5513 5512 5513 5514 5513 5512 5512 5511 5510 5510 5511 5510 5510 5510 5509 5508 5507 5506 5505 5504 5504 5504 5504 5504 5503
5509 5510 5511 5511 5510 5511 5511 5511 5511 5511 5510 5510 5511 5511 5509 5508 5508 5507 5506 5505 5505 5505 5505 5505 5504 5502 5502 5502 5502 5504 5504 5503 5502 5501 5499 5497 5497 5495 5494 5494 5495 5495
5502 5502 5502 5503 5503 5504 5504 5504 5504 5504 5503 5503 5503 5503 5501 5500 5500 5501 5500 5496 5495 5495 5496 5496 5496 5495 5495 5494 5494 5496 5497 5496 5495 5493 5491 5489 5488 5487 5486 5484 5484 5484
5494 5495 5495 5495 5496 5497 5497 5496 5496 5497 5496 5496 5495 5494 5493 5492 5491 5492 5491 5488 5486 5486 5487 5487 5487 5488 5488 5487 5487 5488 5489 5489 5488 5486 5484 5480 5479 5479 5477 5475 5473 5473